Regional Weather Roundup
Issued by NWS Green Bay, WI

Home | Current Version | Previous Version | Graphics & Text | Print | Product List | Glossary Off
Versions: 1 2 3 4 5 6 7 8 9 10 11 12 13 14 15 16 17 18 19 20 21 22 23 24 25 26 27 28 29 30 31 32 33 34 35 36 37 38 39 40 41 42 43 44 45 46 47 48 49 50

000
ASUS43 KGRB 170300
RWRGRB

NORTH-CENTRAL AND NORTHEAST WISCONSIN REGIONAL WEATHER ROUNDUP
NATIONAL WEATHER SERVICE GREEN BAY WI
900 PM CST MON JAN 16 2017

WIZ005-009-010>012-018-019-170400-
NORTH CENTRAL WISCONSIN

CITY           SKY/WX    TMP DP  RH WIND       PRES   REMARKS
IRONWOOD       CLOUDY    24  20  84 CALM      30.03F
MANITOWISH WTR NOT AVBL
ARBOR VITAE    NOT AVBL
EAGLE RIVER    NOT AVBL
LAND O LAKES   NOT AVBL
RHINELANDER    CLOUDY    29  21  72 NE5       30.01F
PHILLIPS       CLOUDY    27  20  75 NE3       30.00F
ANTIGO         NOT AVBL
TOMAHAWK       NOT AVBL
MERRILL        MIX PCPN  30  25  81 CALM        N/A
$$

WIZ013-073-170400-
NORTHEAST WISCONSIN

CITY           SKY/WX    TMP DP  RH WIND       PRES   REMARKS
IRON MOUNTAIN  CLOUDY    22  16  78 CALM      30.05F
MARINETTE      NOT AVBL
$$

WIZ017-030-035>037-045-170400-
CENTRAL WISCONSIN

CITY           SKY/WX    TMP DP  RH WIND       PRES   REMARKS
MEDFORD        NOT AVBL
WAUSAU         FRZ RAIN  29  27  92 E7        29.99F FOG
MOSINEE        NOT AVBL
MARSHFIELD     FRZ RAIN  32  30  92 E12       29.96F FOG
WISC RAPIDS    FRZ RAIN  32  31  96 E7        29.99F FOG
STEVENS POINT  NOT AVBL
WAUPACA        NOT AVBL
SHAWANO        NOT AVBL
CLINTONVILLE   MIX PCPN  32  32 100 NE6       30.03F
WAUTOMA        MIX PCPN  32  32 100 NE9       29.99F FOG
$$

WIZ038-039-048-051-170400-
FOX VALLEY

CITY           SKY/WX    TMP DP  RH WIND       PRES   REMARKS
NWS GREEN BAY  FRZ RAIN  34  33  96 NE10      30.04F FOG
APPLETON       LGT RAIN  32  32 100 VRB3      30.00F
OSHKOSH        LGT RAIN  33  32  96 E10       29.99F
FOND DU LAC    RAIN      35  31  85 E8        29.98F
$$

WIZ022-050-052-170400-
EAST CENTRAL WISCONSIN

CITY           SKY/WX    TMP DP  RH WIND       PRES   REMARKS
EPHRAIM        NOT AVBL
WASHINGTON ISL NOT AVBL
STURGEON BAY   MIX PCPN  32  30  92 E5        30.08F FOG
MANITOWOC      NOT AVBL
SHEBOYGAN      LGT RAIN  34  33  96 E7        30.02F FOG
$$

LMZ563-521-522-541>543-170400-
LAKESHORE

STATION/POSITION TIME  TEMP    WIND        PRES    VSBY  WAVE
                       AIR SEA DIR/SP/G                  HT/PER
                 (UTC) (F)     (DEG/KT/KT) (MB)    (MI)  (FT/S)
SHEBOYGAN LKSHOR 0200   35      80/ 14/ 14 1017.9F
KEWAUNEE LKSHORE 0230   33      80/  7/ 10 1018.0F
NORTHPORT PIER   0240   28        CALM     1019.3F
SISTER BAY LKSHO 0220   27        CALM       N/A
MENOMINEE LKSHOR 0230          360/  6/  6 1018.2F
$$




USA.gov is the U.S. government's official web portal to all federal, state and local government web resources and services.